| time (UTC) | temp F | wind direction | speed MPH | gust MPH | rain 1hr in | rain 24hr in | rain mn in | humidity % | barometer mb |
| 20260505090119 | 61 | 228 | 7.0 | 8.0 | 0.00 | 0.01 | 0.01 | 75 | 1003.6 |
| 20260505085617 | 62 | 243 | 5.0 | 6.0 | 0.00 | 0.01 | 0.01 | 75 | 1003.7 |
| 20260505085115 | 62 | 261 | 6.0 | 7.0 | 0.00 | 0.01 | 0.01 | 75 | 1003.5 |
| 20260505084612 | 62 | 252 | 9.0 | 10.0 | 0.00 | 0.01 | 0.01 | 74 | 1003.5 |
| 20260505084111 | 62 | 244 | 9.0 | 11.0 | 0.00 | 0.01 | 0.01 | 74 | 1003.7 |
| 20260505083608 | 63 | 245 | 10.0 | 15.0 | 0.00 | 0.01 | 0.01 | 73 | 1003.4 |
| 20260505083104 | 63 | 265 | 9.0 | 10.0 | 0.00 | 0.01 | 0.01 | 73 | 1002.9 |
| 20260505082600 | 63 | 262 | 7.0 | 9.0 | 0.00 | 0.01 | 0.01 | 73 | 1003.1 |
| 20260505082057 | 63 | 264 | 9.0 | 13.0 | 0.00 | 0.01 | 0.01 | 72 | 1002.9 |
| 20260505081553 | 64 | 258 | 12.0 | 13.0 | 0.00 | 0.01 | 0.01 | 71 | 1002.9 |
| 20260505081050 | 64 | 260 | 12.0 | 15.0 | 0.00 | 0.01 | 0.01 | 72 | 1002.8 |
| 20260505080546 | 63 | 247 | 13.0 | 16.0 | 0.00 | 0.01 | 0.01 | 72 | 1002.8 |
| 20260505080044 | 64 | 273 | 7.0 | 9.0 | 0.00 | 0.01 | 0.01 | 73 | 1002.5 |
| 20260505075539 | 64 | 221 | 13.0 | 18.0 | 0.00 | 0.01 | 0.01 | 72 | 1002.4 |
| 20260505075036 | 64 | 237 | 7.0 | 9.0 | 0.00 | 0.01 | 0.01 | 73 | 1002.5 |
| 20260505074533 | 64 | 205 | 13.0 | 19.0 | 0.00 | 0.01 | 0.01 | 73 | 1002.6 |
| 20260505074030 | 63 | 282 | 12.0 | 16.0 | 0.05 | 0.01 | 0.01 | 73 | 1002.6 |
| 20260505073528 | 63 | 234 | 8.0 | 10.0 | 0.05 | 0.01 | 0.01 | 77 | 1002.5 |
| 20260505073026 | 64 | 264 | 10.0 | 13.0 | 0.00 | 0.00 | 0.00 | 75 | 1002.5 |
| 20260505072521 | 64 | 201 | 10.0 | 11.0 | 0.00 | 0.00 | 0.00 | 71 | 1002.5 |
| 20260505072018 | 64 | 222 | 12.0 | 14.0 | 0.00 | 0.00 | 0.00 | 71 | 1002.1 |
| 20260505071513 | 64 | 223 | 10.0 | 13.0 | 0.00 | 0.00 | 0.00 | 73 | 1002.2 |
| 20260505071012 | 65 | 235 | 13.0 | 16.0 | 0.00 | 0.00 | 0.00 | 70 | 1002.3 |
| 20260505070509 | 65 | 248 | 10.0 | 11.0 | 0.00 | 0.00 | 0.00 | 68 | 1002.0 |
| 20260505070005 | 66 | 207 | 4.0 | 6.0 | 0.00 | 0.00 | 0.00 | 68 | 1001.9 |
| 20260505065501 | 66 | 241 | 7.0 | 11.0 | 0.00 | 0.00 | 0.00 | 68 | 1001.8 |
| 20260505064957 | 66 | 189 | 5.0 | 8.0 | 0.00 | 0.00 | 0.00 | 67 | 1001.9 |
| 20260505064454 | 66 | 256 | 5.0 | 8.0 | 0.00 | 0.00 | 0.00 | 66 | 1001.9 |
| 20260505063953 | 66 | 258 | 8.0 | 11.0 | 0.00 | 0.00 | 0.00 | 66 | 1002.0 |
| 20260505063449 | 66 | 210 | 6.0 | 7.0 | 0.00 | 0.00 | 0.00 | 66 | 1002.0 |
| 20260505062945 | 66 | 224 | 11.0 | 13.0 | 0.00 | 0.00 | 0.00 | 66 | 1001.8 |
| 20260505062443 | 66 | 218 | 7.0 | 9.0 | 0.00 | 0.00 | 0.00 | 66 | 1001.8 |
| 20260505061939 | 66 | 237 | 9.0 | 11.0 | 0.00 | 0.00 | 0.00 | 66 | 1001.8 |
| 20260505061438 | 66 | 213 | 7.0 | 8.0 | 0.00 | 0.00 | 0.00 | 66 | 1001.7 |
| 20260505060935 | 67 | 211 | 8.0 | 9.0 | 0.00 | 0.00 | 0.00 | 65 | 1001.9 |
| 20260505060432 | 67 | 195 | 6.0 | 7.0 | 0.00 | 0.00 | 0.00 | 65 | 1001.8 |
| 20260505055928 | 66 | 199 | 6.0 | 7.0 | 0.00 | 0.00 | 0.00 | 66 | 1001.6 |
| 20260505055424 | 66 | 236 | 10.0 | 13.0 | 0.00 | 0.00 | 0.00 | 66 | 1001.9 |
| 20260505054921 | 66 | 218 | 11.0 | 13.0 | 0.00 | 0.00 | 0.00 | 66 | 1001.7 |
| 20260505054418 | 66 | 215 | 8.0 | 9.0 | 0.00 | 0.00 | 0.00 | 66 | 1002.0 |
| 20260505053916 | 66 | 198 | 4.0 | 6.0 | 0.00 | 0.00 | 0.00 | 66 | 1002.1 |
| 20260505053413 | 67 | 233 | 6.0 | 8.0 | 0.00 | 0.00 | 0.00 | 66 | 1001.9 |
| 20260505052910 | 67 | 211 | 6.0 | 8.0 | 0.00 | 0.00 | 0.00 | 66 | 1001.9 |
| 20260505052407 | 67 | 257 | 6.0 | 8.0 | 0.00 | 0.00 | 0.00 | 66 | 1002.1 |
| 20260505051904 | 67 | 234 | 9.0 | 10.0 | 0.00 | 0.00 | 0.00 | 65 | 1002.2 |
| 20260505051401 | 67 | 186 | 6.0 | 7.0 | 0.00 | 0.00 | 0.00 | 66 | 1002.1 |
| 20260505050859 | 67 | 218 | 5.0 | 6.0 | 0.00 | 0.00 | 0.00 | 66 | 1002.2 |
| 20260505050357 | 67 | 208 | 6.0 | 8.0 | 0.00 | 0.00 | 0.00 | 65 | 1002.1 |
| 20260505041325 | 67 | 235 | 6.0 | 8.0 | 0.00 | 0.00 | 0.00 | 66 | 1002.6 |
| 20260505040822 | 67 | 202 | 8.0 | 9.0 | 0.00 | 0.00 | 0.00 | 66 | 1002.5 |
| 20260505040320 | 67 | 196 | 6.0 | 9.0 | 0.00 | 0.00 | 0.00 | 65 | 1002.6 |
| 20260505035816 | 67 | 256 | 4.0 | 6.0 | 0.00 | 0.00 | 0.00 | 65 | 1002.5 |
| 20260505035311 | 67 | 216 | 6.0 | 8.0 | 0.00 | 0.00 | 0.00 | 65 | 1002.4 |
| 20260505034809 | 67 | 215 | 6.0 | 7.0 | 0.00 | 0.00 | 0.00 | 66 | 1002.6 |
| 20260505034306 | 67 | 196 | 4.0 | 7.0 | 0.00 | 0.00 | 0.00 | 66 | 1002.7 |
| 20260505033803 | 67 | 218 | 4.0 | 4.0 | 0.00 | 0.00 | 0.00 | 66 | 1002.6 |
| 20260505033300 | 67 | 200 | 5.0 | 7.0 | 0.00 | 0.00 | 0.00 | 65 | 1002.8 |
| 20260505032758 | 67 | 212 | 6.0 | 8.0 | 0.00 | 0.00 | 0.00 | 66 | 1002.6 |
| 20260505032254 | 67 | 186 | 3.0 | 4.0 | 0.00 | 0.00 | 0.00 | 66 | 1002.5 |
| 20260505031751 | 67 | 244 | 7.0 | 8.0 | 0.00 | 0.00 | 0.00 | 66 | 1002.7 |
| 20260505031247 | 67 | 230 | 4.0 | 6.0 | 0.00 | 0.00 | 0.00 | 66 | 1002.5 |
| 20260505030744 | 67 | 225 | 4.0 | 7.0 | 0.00 | 0.00 | 0.00 | 66 | 1002.6 |
| 20260505030241 | 67 | 201 | 5.0 | 7.0 | 0.00 | 0.00 | 0.00 | 66 | 1002.5 |
| 20260505025736 | 67 | 207 | 3.0 | 4.0 | 0.00 | 0.00 | 0.00 | 67 | 1002.5 |
| 20260505025235 | 67 | 205 | 4.0 | 8.0 | 0.00 | 0.00 | 0.00 | 67 | 1002.4 |
| 20260505024733 | 67 | 192 | 3.0 | 3.0 | 0.00 | 0.00 | 0.00 | 67 | 1002.5 |
| 20260505024229 | 66 | 206 | 3.0 | 4.0 | 0.00 | 0.00 | 0.00 | 67 | 1002.4 |
| 20260505023727 | 66 | 189 | 3.0 | 3.0 | 0.00 | 0.00 | 0.00 | 67 | 1002.3 |
| 20260505023224 | 66 | 181 | 2.0 | 3.0 | 0.00 | 0.00 | 0.00 | 68 | 1002.5 |
| 20260505022721 | 66 | 186 | 2.0 | 3.0 | 0.00 | 0.00 | 0.00 | 68 | 1002.4 |
| 20260505022218 | 66 | 181 | 3.0 | 3.0 | 0.00 | 0.00 | 0.00 | 68 | 1002.6 |
| 20260505021715 | 66 | 174 | 1.0 | 2.0 | 0.00 | 0.00 | 0.00 | 68 | 1002.5 |
| 20260505021212 | 67 | 170 | 2.0 | 2.0 | 0.00 | 0.00 | 0.00 | 67 | 1002.6 |
| 20260505020707 | 67 | 185 | 2.0 | 2.0 | 0.00 | 0.00 | 0.00 | 67 | 1002.5 |
| 20260505020203 | 67 | 180 | 2.0 | 3.0 | 0.00 | 0.00 | 0.00 | 67 | 1002.6 |
| 20260505015701 | 67 | 182 | 3.0 | 3.0 | 0.00 | 0.00 | 0.00 | 67 | 1002.5 |
| 20260505015157 | 67 | 185 | 2.0 | 2.0 | 0.00 | 0.00 | 0.00 | 67 | 1002.5 |
| 20260505014654 | 67 | 185 | 2.0 | 2.0 | 0.00 | 0.00 | 0.00 | 66 | 1002.5 |
| 20260505014151 | 67 | 183 | 1.0 | 2.0 | 0.00 | 0.00 | 0.00 | 66 | 1002.6 |
| 20260505013648 | 67 | 191 | 2.0 | 3.0 | 0.00 | 0.00 | 0.00 | 66 | 1002.4 |
| 20260505013145 | 67 | 199 | 2.0 | 3.0 | 0.00 | 0.00 | 0.00 | 65 | 1002.5 |
| 20260505012644 | 67 | 185 | 2.0 | 2.0 | 0.00 | 0.00 | 0.00 | 66 | 1002.4 |
| 20260505012140 | 67 | 172 | 2.0 | 2.0 | 0.00 | 0.00 | 0.00 | 65 | 1002.2 |
| 20260505011636 | 67 | 178 | 2.0 | 2.0 | 0.00 | 0.00 | 0.00 | 65 | 1002.2 |
| 20260505011133 | 67 | 185 | 2.0 | 2.0 | 0.00 | 0.00 | 0.00 | 65 | 1002.3 |
| 20260505010628 | 67 | 186 | 2.0 | 3.0 | 0.00 | 0.00 | 0.00 | 65 | 1002.1 |
| 20260505010125 | 67 | 187 | 2.0 | 2.0 | 0.00 | 0.00 | 0.00 | 66 | 1002.2 |
| 20260505005621 | 67 | 196 | 2.0 | 2.0 | 0.00 | 0.00 | 0.00 | 66 | 1002.2 |
| 20260505005118 | 67 | 188 | 2.0 | 2.0 | 0.00 | 0.00 | 0.00 | 66 | 1002.4 |
| 20260505004615 | 67 | 214 | 3.0 | 3.0 | 0.00 | 0.00 | 0.00 | 66 | 1002.2 |
| 20260505004112 | 67 | 187 | 1.0 | 1.0 | 0.00 | 0.00 | 0.00 | 65 | 1002.2 |
| 20260505003609 | 68 | 231 | 4.0 | 6.0 | 0.00 | 0.00 | 0.00 | 64 | 1002.5 |
| 20260505003107 | 68 | 201 | 3.0 | 3.0 | 0.00 | 0.00 | 0.00 | 64 | 1002.3 |
| 20260505002602 | 68 | 230 | 5.0 | 7.0 | 0.00 | 0.00 | 0.00 | 63 | 1002.4 |
| 20260505002101 | 68 | 248 | 7.0 | 8.0 | 0.00 | 0.00 | 0.00 | 62 | 1002.4 |
| 20260505001558 | 68 | 203 | 7.0 | 8.0 | 0.00 | 0.00 | 0.00 | 62 | 1002.1 |
| 20260505001055 | 69 | 213 | 4.0 | 7.0 | 0.00 | 0.00 | 0.00 | 61 | 1002.2 |
| 20260505000552 | 69 | 227 | 7.0 | 8.0 | 0.00 | 0.00 | 0.00 | 61 | 1002.3 |
| 20260505000050 | 69 | 221 | 9.0 | 10.0 | 0.00 | 0.00 | 0.00 | 60 | 1002.3 |
| 20260504235546 | 69 | 236 | 2.0 | 3.0 | 0.00 | 0.00 | 0.00 | 60 | 1002.3 |
| 20260504235043 | 69 | 214 | 6.0 | 7.0 | 0.00 | 0.00 | 0.00 | 59 | 1002.4 |
| 20260504234540 | 69 | 221 | 7.0 | 9.0 | 0.00 | 0.00 | 0.00 | 59 | 1002.4 |
| 20260504234037 | 69 | 226 | 9.0 | 10.0 | 0.00 | 0.00 | 0.00 | 59 | 1002.2 |
| 20260504233532 | 69 | 265 | 13.0 | 18.0 | 0.00 | 0.00 | 0.00 | 59 | 1002.3 |
| 20260504233029 | 69 | 215 | 6.0 | 8.0 | 0.00 | 0.00 | 0.00 | 60 | 1002.3 |
| 20260504232526 | 70 | 258 | 14.0 | 17.0 | 0.00 | 0.00 | 0.00 | 59 | 1002.4 |
| 20260504232024 | 70 | 254 | 7.0 | 9.0 | 0.00 | 0.00 | 0.00 | 59 | 1002.1 |
| 20260504231521 | 71 | 212 | 7.0 | 11.0 | 0.00 | 0.00 | 0.00 | 57 | 1002.2 |
| 20260504231017 | 72 | 218 | 14.0 | 16.0 | 0.00 | 0.00 | 0.00 | 55 | 1002.1 |
| 20260504230513 | 72 | 220 | 8.0 | 10.0 | 0.00 | 0.00 | 0.00 | 54 | 1002.2 |
| 20260504230013 | 72 | 204 | 9.0 | 10.0 | 0.00 | 0.00 | 0.00 | 54 | 1002.0 |
| 20260504225509 | 73 | 205 | 8.0 | 10.0 | 0.00 | 0.00 | 0.00 | 52 | 1001.9 |
| 20260504225006 | 72 | 230 | 9.0 | 10.0 | 0.00 | 0.00 | 0.00 | 53 | 1002.1 |
| 20260504224502 | 73 | 231 | 7.0 | 9.0 | 0.00 | 0.00 | 0.00 | 53 | 1002.0 |
| 20260504223959 | 73 | 215 | 6.0 | 8.0 | 0.00 | 0.00 | 0.00 | 52 | 1002.2 |
| 20260504223456 | 73 | 268 | 15.0 | 21.0 | 0.00 | 0.00 | 0.00 | 51 | 1002.1 |
| 20260504222951 | 72 | 217 | 8.0 | 9.0 | 0.00 | 0.00 | 0.00 | 52 | 1002.1 |
| 20260504222449 | 73 | 251 | 15.0 | 17.0 | 0.00 | 0.00 | 0.00 | 52 | 1002.1 |
| 20260504221946 | 74 | 229 | 7.0 | 8.0 | 0.00 | 0.00 | 0.00 | 52 | 1002.2 |
| 20260504221444 | 73 | 238 | 10.0 | 13.0 | 0.00 | 0.00 | 0.00 | 51 | 1002.1 |
| 20260504220941 | 73 | 263 | 9.0 | 13.0 | 0.00 | 0.00 | 0.00 | 52 | 1002.2 |
| 20260504220437 | 73 | 254 | 13.0 | 16.0 | 0.00 | 0.00 | 0.00 | 52 | 1002.2 |
| 20260504215934 | 73 | 292 | 11.0 | 16.0 | 0.00 | 0.00 | 0.00 | 51 | 1002.3 |
| 20260504215431 | 74 | 280 | 14.0 | 22.0 | 0.00 | 0.00 | 0.00 | 51 | 1002.4 |
| 20260504214927 | 73 | 255 | 15.0 | 17.0 | 0.00 | 0.00 | 0.00 | 51 | 1002.1 |
| 20260504214424 | 73 | 258 | 14.0 | 24.0 | 0.00 | 0.00 | 0.00 | 51 | 1002.4 |
| 20260504213920 | 73 | 245 | 11.0 | 14.0 | 0.00 | 0.00 | 0.00 | 52 | 1002.2 |
| 20260504213416 | 73 | 267 | 12.0 | 13.0 | 0.00 | 0.00 | 0.00 | 52 | 1002.3 |
| 20260504212914 | 73 | 247 | 8.0 | 10.0 | 0.00 | 0.00 | 0.00 | 53 | 1002.2 |
| 20260504212409 | 74 | 226 | 9.0 | 9.0 | 0.00 | 0.00 | 0.00 | 53 | 1002.1 |
| 20260504211908 | 73 | 244 | 13.0 | 17.0 | 0.00 | 0.00 | 0.00 | 53 | 1002.3 |
| 20260504211404 | 73 | 233 | 11.0 | 13.0 | 0.00 | 0.00 | 0.00 | 54 | 1002.5 |
| 20260504210901 | 73 | 257 | 16.0 | 19.0 | 0.00 | 0.00 | 0.00 | 54 | 1002.6 |
| 20260504210358 | 73 | 214 | 9.0 | 11.0 | 0.00 | 0.00 | 0.00 | 55 | 1002.5 |
| 20260504205855 | 73 | 231 | 8.0 | 11.0 | 0.00 | 0.00 | 0.00 | 55 | 1002.7 |
| 20260504205353 | 72 | 232 | 9.0 | 11.0 | 0.00 | 0.00 | 0.00 | 55 | 1002.6 |
| 20260504204851 | 72 | 233 | 11.0 | 13.0 | 0.00 | 0.00 | 0.00 | 56 | 1002.7 |
| 20260504204349 | 73 | 228 | 15.0 | 19.0 | 0.00 | 0.00 | 0.00 | 55 | 1002.7 |
| 20260504203848 | 73 | 231 | 12.0 | 16.0 | 0.00 | 0.00 | 0.00 | 54 | 1002.8 |
| 20260504203344 | 74 | 198 | 9.0 | 14.0 | 0.00 | 0.00 | 0.00 | 55 | 1002.8 |
| 20260504202840 | 73 | 198 | 10.0 | 17.0 | 0.00 | 0.00 | 0.00 | 55 | 1002.3 |
| 20260504202338 | 73 | 235 | 12.0 | 15.0 | 0.00 | 0.00 | 0.00 | 56 | 1002.4 |
| 20260504201834 | 73 | 235 | 21.0 | 26.0 | 0.00 | 0.00 | 0.00 | 54 | 1002.7 |
| 20260504201332 | 73 | 245 | 18.0 | 22.0 | 0.00 | 0.00 | 0.00 | 56 | 1002.8 |
| 20260504200829 | 74 | 216 | 7.0 | 8.0 | 0.00 | 0.00 | 0.00 | 55 | 1002.9 |
| 20260504200325 | 73 | 226 | 13.0 | 17.0 | 0.00 | 0.00 | 0.00 | 55 | 1003.1 |
| 20260504195821 | 72 | 215 | 6.0 | 8.0 | 0.00 | 0.00 | 0.00 | 56 | 1003.1 |
| 20260504195317 | 73 | 224 | 13.0 | 17.0 | 0.00 | 0.00 | 0.00 | 56 | 1003.0 |
| 20260504194814 | 73 | 222 | 13.0 | 15.0 | 0.00 | 0.00 | 0.00 | 56 | 1003.1 |
| 20260504194310 | 73 | 226 | 8.0 | 8.0 | 0.00 | 0.00 | 0.00 | 56 | 1002.9 |
| 20260504193807 | 74 | 201 | 11.0 | 14.0 | 0.00 | 0.00 | 0.00 | 55 | 1003.1 |
| 20260504193304 | 75 | 227 | 14.0 | 18.0 | 0.00 | 0.00 | 0.00 | 54 | 1003.2 |
| 20260504192803 | 74 | 226 | 9.0 | 9.0 | 0.00 | 0.00 | 0.00 | 54 | 1003.0 |
| 20260504192300 | 73 | 217 | 6.0 | 7.0 | 0.00 | 0.00 | 0.00 | 56 | 1003.2 |
| 20260504191759 | 73 | 225 | 9.0 | 11.0 | 0.00 | 0.00 | 0.00 | 55 | 1003.2 |
| 20260504191255 | 73 | 238 | 11.0 | 13.0 | 0.00 | 0.00 | 0.00 | 55 | 1003.3 |
| 20260504190751 | 72 | 219 | 13.0 | 15.0 | 0.00 | 0.00 | 0.00 | 56 | 1003.2 |
| 20260504190248 | 72 | 313 | 6.0 | 8.0 | 0.00 | 0.00 | 0.00 | 57 | 1003.3 |
| 20260504185744 | 73 | 218 | 11.0 | 11.0 | 0.00 | 0.00 | 0.00 | 56 | 1003.1 |
| 20260504185241 | 74 | 239 | 11.0 | 13.0 | 0.00 | 0.00 | 0.00 | 55 | 1003.3 |
| 20260504184737 | 73 | 242 | 7.0 | 11.0 | 0.00 | 0.00 | 0.00 | 56 | 1003.3 |
| 20260504184233 | 72 | 207 | 9.0 | 10.0 | 0.00 | 0.00 | 0.00 | 56 | 1003.4 |
| 20260504183729 | 73 | 291 | 10.0 | 11.0 | 0.00 | 0.00 | 0.00 | 56 | 1003.6 |
| 20260504183226 | 73 | 235 | 10.0 | 15.0 | 0.00 | 0.00 | 0.00 | 56 | 1003.5 |
| 20260504182724 | 71 | 255 | 7.0 | 8.0 | 0.00 | 0.00 | 0.00 | 57 | 1003.7 |
| 20260504182221 | 71 | 250 | 10.0 | 14.0 | 0.00 | 0.00 | 0.00 | 57 | 1003.8 |
| 20260504181719 | 71 | 229 | 4.0 | 4.0 | 0.00 | 0.00 | 0.00 | 58 | 1003.7 |
| 20260504181216 | 72 | 227 | 10.0 | 11.0 | 0.00 | 0.00 | 0.00 | 57 | 1003.8 |
| 20260504180715 | 71 | 220 | 3.0 | 4.0 | 0.00 | 0.00 | 0.00 | 59 | 1003.9 |
| 20260504180213 | 71 | 227 | 6.0 | 9.0 | 0.00 | 0.00 | 0.00 | 59 | 1004.3 |
| 20260504175710 | 70 | 204 | 4.0 | 4.0 | 0.00 | 0.00 | 0.00 | 58 | 1003.9 |
| 20260504175207 | 70 | 262 | 12.0 | 14.0 | 0.00 | 0.00 | 0.00 | 58 | 1004.3 |
| 20260504174705 | 70 | 229 | 11.0 | 13.0 | 0.00 | 0.00 | 0.00 | 59 | 1004.2 |
| 20260504174203 | 70 | 190 | 4.0 | 6.0 | 0.00 | 0.00 | 0.00 | 60 | 1004.2 |
| 20260504173659 | 69 | 205 | 4.0 | 4.0 | 0.00 | 0.00 | 0.00 | 59 | 1004.2 |
| 20260504173156 | 69 | 198 | 4.0 | 6.0 | 0.00 | 0.00 | 0.00 | 61 | 1004.2 |
| 20260504172652 | 69 | 230 | 8.0 | 9.0 | 0.00 | 0.00 | 0.00 | 58 | 1004.3 |
| 20260504172149 | 69 | 222 | 8.0 | 10.0 | 0.00 | 0.00 | 0.00 | 60 | 1004.4 |
| 20260504171645 | 69 | 219 | 3.0 | 4.0 | 0.00 | 0.00 | 0.00 | 60 | 1004.5 |
| 20260504171143 | 68 | 225 | 6.0 | 8.0 | 0.00 | 0.00 | 0.00 | 60 | 1004.5 |
| 20260504170639 | 68 | 191 | 2.0 | 2.0 | 0.00 | 0.00 | 0.00 | 61 | 1004.6 |
| 20260504170137 | 68 | 213 | 6.0 | 7.0 | 0.00 | 0.00 | 0.00 | 60 | 1004.5 |
| 20260504151022 | 62 | 197 | 7.0 | 10.0 | 0.00 | 0.00 | 0.00 | 65 | 1005.4 |
| 20260504150520 | 62 | 211 | 7.0 | 8.0 | 0.00 | 0.00 | 0.00 | 65 | 1005.5 |
| 20260504140950 | 58 | 200 | 7.0 | 9.0 | 0.00 | 0.00 | 0.00 | 66 | 1005.8 |
| 20260504140447 | 58 | 236 | 10.0 | 13.0 | 0.00 | 0.00 | 0.00 | 66 | 1006.0 |
| 20260504130411 | 55 | 176 | 4.0 | 6.0 | 0.00 | 0.00 | 0.00 | 69 | 1006.4 |
| 20260504110259 | 49 | 180 | 2.0 | 2.0 | 0.00 | 0.00 | 0.00 | 75 | 1006.3 |
| 20260504100217 | 49 | 192 | 4.0 | 4.0 | 0.00 | 0.00 | 0.00 | 75 | 1006.3 |